| time (UTC) | temp F | wind direction | speed MPH | gust MPH | rain 1hr in | rain 24hr in | rain mn in | humidity % | barometer mb |
| 20260504060203 | 58 | 0 | 0.0 | 0.0 | 0.00 | 0.00 | 0.00 | 85 | 1017.9 |
| 20260504050700 | 58 | 0 | 0.0 | 0.0 | 0.00 | 0.00 | 0.00 | 87 | 1018.0 |
| 20260504050200 | 57 | 217 | 0.0 | 0.0 | 0.00 | 0.00 | 0.00 | 89 | 1018.0 |
| 20260504045700 | 57 | 228 | 0.0 | 1.0 | 0.00 | 0.00 | 0.00 | 91 | 1017.9 |
| 20260504045200 | 56 | 246 | 0.0 | 1.0 | 0.00 | 0.00 | 0.00 | 92 | 1017.9 |
| 20260504044700 | 56 | 0 | 0.0 | 0.0 | 0.00 | 0.00 | 0.00 | 92 | 1017.9 |
| 20260504044200 | 56 | 0 | 0.0 | 0.0 | 0.00 | 0.00 | 0.00 | 92 | 1017.9 |
| 20260504043701 | 56 | 238 | 0.0 | 1.0 | 0.00 | 0.00 | 0.00 | 92 | 1017.9 |
| 20260504043201 | 56 | 234 | 0.0 | 1.0 | 0.00 | 0.00 | 0.00 | 92 | 1017.9 |
| 20260504042700 | 57 | 239 | 0.0 | 2.0 | 0.00 | 0.00 | 0.00 | 91 | 1017.9 |
| 20260504042201 | 57 | 0 | 0.0 | 0.0 | 0.00 | 0.00 | 0.00 | 91 | 1017.8 |
| 20260504041700 | 57 | 110 | 0.0 | 2.0 | 0.00 | 0.00 | 0.00 | 91 | 1017.8 |
| 20260504041200 | 57 | 112 | 2.0 | 2.0 | 0.00 | 0.00 | 0.00 | 91 | 1017.7 |
| 20260504040701 | 57 | 0 | 0.0 | 0.0 | 0.00 | 0.00 | 0.00 | 91 | 1017.9 |
| 20260504040201 | 57 | 242 | 0.0 | 1.0 | 0.00 | 0.00 | 0.00 | 91 | 1018.0 |
| 20260504035701 | 57 | 265 | 1.0 | 2.0 | 0.00 | 0.00 | 0.00 | 91 | 1018.0 |
| 20260504035200 | 57 | 0 | 0.0 | 0.0 | 0.00 | 0.00 | 0.00 | 90 | 1018.0 |
| 20260504034700 | 58 | 270 | 1.0 | 2.0 | 0.00 | 0.00 | 0.00 | 90 | 1017.9 |
| 20260504034200 | 58 | 271 | 0.0 | 2.0 | 0.00 | 0.00 | 0.00 | 90 | 1018.0 |
| 20260504033700 | 58 | 0 | 0.0 | 0.0 | 0.00 | 0.00 | 0.00 | 90 | 1018.0 |
| 20260504033200 | 58 | 349 | 1.0 | 2.0 | 0.00 | 0.00 | 0.00 | 90 | 1018.0 |
| 20260504032700 | 58 | 0 | 0.0 | 0.0 | 0.00 | 0.00 | 0.00 | 89 | 1018.0 |
| 20260504032200 | 58 | 0 | 0.0 | 0.0 | 0.00 | 0.00 | 0.00 | 89 | 1018.0 |
| 20260504031700 | 59 | 105 | 1.0 | 2.0 | 0.00 | 0.00 | 0.00 | 89 | 1018.0 |
| 20260504031200 | 59 | 97 | 0.0 | 0.0 | 0.00 | 0.00 | 0.00 | 89 | 1018.0 |
| 20260504030700 | 59 | 149 | 0.0 | 1.0 | 0.00 | 0.00 | 0.00 | 89 | 1018.1 |
| 20260504030200 | 59 | 79 | 2.0 | 2.0 | 0.00 | 0.00 | 0.00 | 89 | 1018.0 |
| 20260504025700 | 59 | 108 | 0.0 | 0.0 | 0.00 | 0.00 | 0.00 | 88 | 1018.1 |
| 20260504025200 | 59 | 0 | 0.0 | 0.0 | 0.00 | 0.00 | 0.00 | 88 | 1018.1 |
| 20260504024701 | 59 | 0 | 0.0 | 0.0 | 0.00 | 0.00 | 0.00 | 87 | 1018.1 |
| 20260504024208 | 59 | 0 | 0.0 | 0.0 | 0.00 | 0.00 | 0.00 | 87 | 1018.0 |
| 20260504023700 | 60 | 0 | 0.0 | 0.0 | 0.00 | 0.00 | 0.00 | 87 | 1018.1 |
| 20260504023200 | 60 | 0 | 0.0 | 0.0 | 0.00 | 0.00 | 0.00 | 86 | 1018.0 |
| 20260504022701 | 60 | 257 | 0.0 | 1.0 | 0.00 | 0.00 | 0.00 | 85 | 1018.0 |
| 20260504022200 | 61 | 0 | 0.0 | 0.0 | 0.00 | 0.00 | 0.00 | 85 | 1018.0 |
| 20260504021701 | 61 | 0 | 0.0 | 0.0 | 0.00 | 0.00 | 0.00 | 85 | 1018.0 |
| 20260504021200 | 62 | 272 | 0.0 | 2.0 | 0.00 | 0.00 | 0.00 | 84 | 1017.9 |
| 20260504020700 | 62 | 0 | 0.0 | 0.0 | 0.00 | 0.00 | 0.00 | 82 | 1017.9 |
| 20260504020203 | 62 | 0 | 0.0 | 0.0 | 0.00 | 0.00 | 0.00 | 82 | 1017.8 |
| 20260504015700 | 63 | 92 | 0.0 | 2.0 | 0.00 | 0.00 | 0.00 | 81 | 1017.7 |
| 20260504015202 | 63 | 0 | 0.0 | 0.0 | 0.00 | 0.00 | 0.00 | 80 | 1017.7 |
| 20260504014700 | 64 | 0 | 0.0 | 0.0 | 0.00 | 0.00 | 0.00 | 79 | 1017.8 |
| 20260504014200 | 64 | 0 | 0.0 | 0.0 | 0.00 | 0.00 | 0.00 | 78 | 1017.8 |
| 20260504013700 | 65 | 0 | 0.0 | 0.0 | 0.00 | 0.00 | 0.00 | 76 | 1017.7 |
| 20260504013201 | 65 | 0 | 0.0 | 0.0 | 0.00 | 0.00 | 0.00 | 75 | 1017.8 |
| 20260504012702 | 65 | 331 | 0.0 | 0.0 | 0.00 | 0.00 | 0.00 | 75 | 1017.8 |
| 20260504012200 | 66 | 88 | 0.0 | 2.0 | 0.00 | 0.00 | 0.00 | 74 | 1017.8 |
| 20260504011700 | 67 | 82 | 1.0 | 3.0 | 0.00 | 0.00 | 0.00 | 73 | 1017.7 |
| 20260504011200 | 67 | 0 | 0.0 | 0.0 | 0.00 | 0.00 | 0.00 | 72 | 1017.8 |
| 20260504010700 | 68 | 0 | 0.0 | 0.0 | 0.00 | 0.00 | 0.00 | 70 | 1017.7 |
| 20260504010200 | 69 | 0 | 0.0 | 0.0 | 0.00 | 0.00 | 0.00 | 70 | 1017.8 |
| 20260504005700 | 70 | 30 | 0.0 | 0.0 | 0.00 | 0.00 | 0.00 | 66 | 1017.7 |
| 20260504005200 | 72 | 49 | 1.0 | 2.0 | 0.00 | 0.00 | 0.00 | 65 | 1017.7 |
| 20260504004700 | 73 | 67 | 0.0 | 1.0 | 0.00 | 0.00 | 0.00 | 60 | 1017.7 |
| 20260504004200 | 74 | 337 | 0.0 | 1.0 | 0.00 | 0.00 | 0.00 | 58 | 1017.7 |
| 20260504003701 | 75 | 18 | 0.0 | 0.0 | 0.00 | 0.00 | 0.00 | 57 | 1017.6 |
| 20260504003200 | 76 | 349 | 0.0 | 1.0 | 0.00 | 0.00 | 0.00 | 57 | 1017.7 |
| 20260504002701 | 77 | 0 | 0.0 | 0.0 | 0.00 | 0.00 | 0.00 | 55 | 1017.7 |
| 20260504002200 | 76 | 0 | 0.0 | 0.0 | 0.00 | 0.00 | 0.00 | 53 | 1017.6 |
| 20260504001700 | 77 | 182 | 0.0 | 1.0 | 0.00 | 0.00 | 0.00 | 50 | 1017.7 |
| 20260504001201 | 77 | 166 | 1.0 | 2.0 | 0.00 | 0.00 | 0.00 | 49 | 1017.7 |
| 20260504000700 | 77 | 0 | 0.0 | 0.0 | 0.00 | 0.00 | 0.00 | 50 | 1017.8 |
| 20260504000201 | 77 | 159 | 1.0 | 2.0 | 0.00 | 0.00 | 0.00 | 50 | 1017.8 |
| 20260503235700 | 77 | 173 | 0.0 | 1.0 | 0.00 | 0.00 | 0.00 | 49 | 1017.9 |
| 20260503235201 | 78 | 215 | 2.0 | 3.0 | 0.00 | 0.00 | 0.00 | 48 | 1018.0 |
| 20260503234700 | 78 | 189 | 0.0 | 2.0 | 0.00 | 0.00 | 0.00 | 50 | 1018.0 |
| 20260503234201 | 78 | 223 | 3.0 | 6.0 | 0.00 | 0.00 | 0.00 | 47 | 1018.0 |
| 20260503233700 | 78 | 174 | 3.0 | 4.0 | 0.00 | 0.00 | 0.00 | 46 | 1018.0 |
| 20260503233200 | 78 | 243 | 3.0 | 4.0 | 0.00 | 0.00 | 0.00 | 45 | 1018.0 |
| 20260503232701 | 78 | 272 | 2.0 | 3.0 | 0.00 | 0.00 | 0.00 | 46 | 1018.1 |
| 20260503232201 | 78 | 276 | 2.0 | 4.0 | 0.00 | 0.00 | 0.00 | 45 | 1018.1 |
| 20260503231702 | 78 | 247 | 2.0 | 3.0 | 0.00 | 0.00 | 0.00 | 45 | 1018.0 |
| 20260503231200 | 77 | 252 | 4.0 | 5.0 | 0.00 | 0.00 | 0.00 | 45 | 1018.1 |
| 20260503230702 | 78 | 257 | 5.0 | 6.0 | 0.00 | 0.00 | 0.00 | 46 | 1018.2 |
| 20260503230200 | 78 | 253 | 5.0 | 7.0 | 0.00 | 0.00 | 0.00 | 45 | 1018.1 |
| 20260503225700 | 78 | 229 | 4.0 | 6.0 | 0.00 | 0.00 | 0.00 | 46 | 1018.2 |
| 20260503225200 | 78 | 248 | 4.0 | 5.0 | 0.00 | 0.00 | 0.00 | 46 | 1018.2 |
| 20260503224700 | 78 | 219 | 3.0 | 4.0 | 0.00 | 0.00 | 0.00 | 48 | 1018.2 |
| 20260503224200 | 78 | 174 | 3.0 | 4.0 | 0.00 | 0.00 | 0.00 | 44 | 1018.2 |
| 20260503223700 | 78 | 269 | 2.0 | 4.0 | 0.00 | 0.00 | 0.00 | 43 | 1018.3 |
| 20260503223200 | 78 | 248 | 3.0 | 5.0 | 0.00 | 0.00 | 0.00 | 43 | 1018.3 |
| 20260503222700 | 78 | 245 | 4.0 | 6.0 | 0.00 | 0.00 | 0.00 | 45 | 1018.3 |
| 20260503222200 | 78 | 247 | 2.0 | 4.0 | 0.00 | 0.00 | 0.00 | 44 | 1018.4 |
| 20260503221700 | 78 | 159 | 0.0 | 1.0 | 0.00 | 0.00 | 0.00 | 46 | 1018.4 |
| 20260503221200 | 78 | 176 | 3.0 | 4.0 | 0.00 | 0.00 | 0.00 | 46 | 1018.5 |
| 20260503220701 | 79 | 207 | 2.0 | 2.0 | 0.00 | 0.00 | 0.00 | 47 | 1018.6 |
| 20260503220201 | 79 | 176 | 3.0 | 6.0 | 0.00 | 0.00 | 0.00 | 46 | 1018.6 |
| 20260503215700 | 79 | 84 | 2.0 | 3.0 | 0.00 | 0.00 | 0.00 | 41 | 1018.6 |
| 20260503215201 | 78 | 257 | 3.0 | 4.0 | 0.00 | 0.00 | 0.00 | 44 | 1018.7 |
| 20260503214700 | 78 | 184 | 2.0 | 6.0 | 0.00 | 0.00 | 0.00 | 48 | 1018.7 |
| 20260503214200 | 78 | 221 | 3.0 | 3.0 | 0.00 | 0.00 | 0.00 | 45 | 1018.8 |
| 20260503213701 | 78 | 249 | 4.0 | 6.0 | 0.00 | 0.00 | 0.00 | 43 | 1018.8 |
| 20260503213200 | 77 | 233 | 0.0 | 2.0 | 0.00 | 0.00 | 0.00 | 44 | 1018.8 |
| 20260503212331 | 77 | 131 | 0.0 | 0.0 | 0.00 | 0.00 | 0.00 | 43 | 1019.1 |
| 20260503211700 | 77 | 188 | 2.0 | 5.0 | 0.00 | 0.00 | 0.00 | 47 | 1019.2 |
| 20260503211200 | 76 | 225 | 1.0 | 2.0 | 0.00 | 0.00 | 0.00 | 49 | 1019.4 |
| 20260503210701 | 76 | 247 | 2.0 | 3.0 | 0.00 | 0.00 | 0.00 | 47 | 1019.4 |
| 20260503210200 | 76 | 291 | 3.0 | 4.0 | 0.00 | 0.00 | 0.00 | 48 | 1019.4 |
| 20260503205700 | 77 | 285 | 6.0 | 7.0 | 0.00 | 0.00 | 0.00 | 47 | 1019.5 |
| 20260503205200 | 78 | 258 | 7.0 | 8.0 | 0.00 | 0.00 | 0.00 | 45 | 1019.5 |
| 20260503204700 | 78 | 304 | 3.0 | 4.0 | 0.00 | 0.00 | 0.00 | 46 | 1019.6 |
| 20260503204200 | 78 | 248 | 6.0 | 12.0 | 0.00 | 0.00 | 0.00 | 45 | 1019.6 |
| 20260503203700 | 78 | 252 | 1.0 | 2.0 | 0.00 | 0.00 | 0.00 | 46 | 1019.8 |
| 20260503203200 | 77 | 291 | 2.0 | 5.0 | 0.00 | 0.00 | 0.00 | 46 | 1019.9 |
| 20260503202700 | 77 | 304 | 1.0 | 3.0 | 0.00 | 0.00 | 0.00 | 47 | 1020.0 |
| 20260503202200 | 77 | 245 | 5.0 | 9.0 | 0.00 | 0.00 | 0.00 | 47 | 1020.0 |
| 20260503201700 | 78 | 215 | 4.0 | 7.0 | 0.00 | 0.00 | 0.00 | 45 | 1020.3 |
| 20260503201201 | 78 | 219 | 4.0 | 5.0 | 0.00 | 0.00 | 0.00 | 45 | 1020.4 |
| 20260503200701 | 77 | 262 | 2.0 | 4.0 | 0.00 | 0.00 | 0.00 | 46 | 1020.5 |
| 20260503200200 | 76 | 265 | 4.0 | 5.0 | 0.00 | 0.00 | 0.00 | 46 | 1020.5 |
| 20260503195700 | 76 | 278 | 6.0 | 7.0 | 0.00 | 0.00 | 0.00 | 49 | 1020.6 |
| 20260503195200 | 76 | 257 | 3.0 | 5.0 | 0.00 | 0.00 | 0.00 | 48 | 1020.7 |
| 20260503194700 | 76 | 253 | 5.0 | 6.0 | 0.00 | 0.00 | 0.00 | 48 | 1020.7 |
| 20260503194201 | 76 | 225 | 2.0 | 3.0 | 0.00 | 0.00 | 0.00 | 46 | 1020.7 |
| 20260503193700 | 76 | 263 | 6.0 | 9.0 | 0.00 | 0.00 | 0.00 | 48 | 1020.8 |
| 20260503193200 | 75 | 263 | 5.0 | 9.0 | 0.00 | 0.00 | 0.00 | 50 | 1020.9 |
| 20260503192701 | 76 | 273 | 4.0 | 6.0 | 0.00 | 0.00 | 0.00 | 51 | 1021.0 |
| 20260503192200 | 76 | 359 | 2.0 | 4.0 | 0.00 | 0.00 | 0.00 | 47 | 1021.1 |
| 20260503191701 | 76 | 253 | 6.0 | 8.0 | 0.00 | 0.00 | 0.00 | 50 | 1021.2 |
| 20260503191200 | 75 | 289 | 5.0 | 7.0 | 0.00 | 0.00 | 0.00 | 50 | 1021.3 |
| 20260503190701 | 75 | 218 | 2.0 | 4.0 | 0.00 | 0.00 | 0.00 | 50 | 1021.4 |
| 20260503190200 | 75 | 281 | 4.0 | 6.0 | 0.00 | 0.00 | 0.00 | 48 | 1021.4 |
| 20260503185700 | 75 | 235 | 6.0 | 10.0 | 0.00 | 0.00 | 0.00 | 51 | 1021.4 |
| 20260503185200 | 75 | 295 | 5.0 | 8.0 | 0.00 | 0.00 | 0.00 | 49 | 1021.5 |
| 20260503184701 | 75 | 313 | 2.0 | 4.0 | 0.00 | 0.00 | 0.00 | 47 | 1021.6 |
| 20260503184201 | 75 | 270 | 4.0 | 5.0 | 0.00 | 0.00 | 0.00 | 50 | 1021.8 |
| 20260503183700 | 76 | 261 | 6.0 | 9.0 | 0.00 | 0.00 | 0.00 | 49 | 1021.8 |
| 20260503183200 | 76 | 306 | 4.0 | 5.0 | 0.00 | 0.00 | 0.00 | 49 | 1021.8 |
| 20260503182700 | 76 | 174 | 2.0 | 4.0 | 0.00 | 0.00 | 0.00 | 49 | 1022.0 |
| 20260503182201 | 75 | 5 | 3.0 | 7.0 | 0.00 | 0.00 | 0.00 | 49 | 1022.1 |
| 20260503181700 | 75 | 282 | 4.0 | 6.0 | 0.00 | 0.00 | 0.00 | 47 | 1022.1 |
| 20260503181200 | 75 | 228 | 6.0 | 9.0 | 0.00 | 0.00 | 0.00 | 47 | 1022.1 |
| 20260503180701 | 75 | 228 | 7.0 | 10.0 | 0.00 | 0.00 | 0.00 | 45 | 1022.3 |
| 20260503180201 | 75 | 274 | 8.0 | 11.0 | 0.00 | 0.00 | 0.00 | 48 | 1022.3 |
| 20260503175700 | 75 | 226 | 6.0 | 8.0 | 0.00 | 0.00 | 0.00 | 45 | 1022.4 |
| 20260503175200 | 75 | 191 | 4.0 | 6.0 | 0.00 | 0.00 | 0.00 | 49 | 1022.4 |
| 20260503174700 | 75 | 178 | 2.0 | 3.0 | 0.00 | 0.00 | 0.00 | 46 | 1022.4 |
| 20260503174200 | 74 | 181 | 5.0 | 8.0 | 0.00 | 0.00 | 0.00 | 49 | 1022.5 |
| 20260503173700 | 74 | 234 | 6.0 | 9.0 | 0.00 | 0.00 | 0.00 | 48 | 1022.6 |
| 20260503173201 | 74 | 220 | 6.0 | 7.0 | 0.00 | 0.00 | 0.00 | 47 | 1022.7 |
| 20260503172701 | 74 | 217 | 1.0 | 4.0 | 0.00 | 0.00 | 0.00 | 47 | 1022.7 |
| 20260503172200 | 74 | 241 | 2.0 | 3.0 | 0.00 | 0.00 | 0.00 | 47 | 1022.8 |
| 20260503171701 | 74 | 250 | 6.0 | 8.0 | 0.00 | 0.00 | 0.00 | 48 | 1022.9 |
| 20260503171200 | 74 | 271 | 4.0 | 6.0 | 0.00 | 0.00 | 0.00 | 48 | 1022.9 |
| 20260503170702 | 74 | 310 | 4.0 | 9.0 | 0.00 | 0.00 | 0.00 | 46 | 1022.9 |
| 20260503170200 | 74 | 286 | 5.0 | 6.0 | 0.00 | 0.00 | 0.00 | 44 | 1023.1 |
| 20260503160201 | 71 | 265 | 3.0 | 7.0 | 0.00 | 0.00 | 0.00 | 57 | 1023.3 |
| 20260503150702 | 69 | 264 | 2.0 | 3.0 | 0.00 | 0.00 | 0.00 | 63 | 1023.3 |
| 20260503150200 | 68 | 231 | 3.0 | 5.0 | 0.00 | 0.00 | 0.00 | 64 | 1023.3 |
| 20260503140200 | 59 | 142 | 1.0 | 2.0 | 0.00 | 0.00 | 0.00 | 93 | 1022.9 |
| 20260503131200 | 53 | 338 | 2.0 | 2.0 | 0.00 | 0.00 | 0.00 | 96 | 1022.6 |
| 20260503130701 | 53 | 324 | 2.0 | 3.0 | 0.00 | 0.00 | 0.00 | 96 | 1022.6 |
| 20260503130200 | 52 | 5 | 2.0 | 3.0 | 0.00 | 0.00 | 0.00 | 96 | 1022.6 |
| 20260503120200 | 48 | 0 | 0.0 | 0.0 | 0.00 | 0.00 | 0.00 | 95 | 1021.8 |
| 20260503110700 | 47 | 0 | 0.0 | 0.0 | 0.00 | 0.00 | 0.00 | 95 | 1021.0 |
| 20260503110201 | 47 | 0 | 0.0 | 0.0 | 0.00 | 0.00 | 0.00 | 95 | 1020.9 |
| 20260503100200 | 47 | 0 | 0.0 | 0.0 | 0.00 | 0.00 | 0.00 | 95 | 1020.6 |
| 20260503090200 | 47 | 0 | 0.0 | 0.0 | 0.00 | 0.00 | 0.00 | 95 | 1020.5 |
| 20260503081200 | 48 | 0 | 0.0 | 0.0 | 0.00 | 0.00 | 0.00 | 94 | 1020.5 |
| 20260503080700 | 48 | 0 | 0.0 | 0.0 | 0.00 | 0.00 | 0.00 | 94 | 1020.5 |
| 20260503080200 | 48 | 0 | 0.0 | 0.0 | 0.00 | 0.00 | 0.00 | 94 | 1020.6 |
| 20260503072700 | 49 | 0 | 0.0 | 0.0 | 0.00 | 0.00 | 0.00 | 94 | 1020.6 |
| 20260503072200 | 49 | 0 | 0.0 | 0.0 | 0.00 | 0.00 | 0.00 | 94 | 1020.5 |
| 20260503071231 | 49 | 0 | 0.0 | 0.0 | 0.00 | 0.00 | 0.00 | 94 | 1020.6 |
| 20260503070700 | 49 | 0 | 0.0 | 0.0 | 0.00 | 0.00 | 0.00 | 94 | 1020.6 |
| 20260503070200 | 49 | 0 | 0.0 | 0.0 | 0.00 | 0.00 | 0.00 | 94 | 1020.7 |